Theta_e
333 333 334 333 335 334 333 330 325 325 326 327 329 328 324 323 322 322 321 320 319 317 315 313 311 308 307 306 307 319 330 332 333 334 333 331 323 312 308 317 324 327 328 329 329 329 329 323 315 313 314 315 313 313 313 314 315 315 319 324 328 331 331 331 332 333 334 334 335 334 334 334 334 333 334 334 334 335 334 334 334 334 333 333 332
332 334 333 333 334 334 333 329 324 325 327 328 329 327 324 323 322 321 320 319 318 317 315 313 312 309 307 307 315 325 330 331 333 334 333 331 325 316 311 317 323 325 327 327 327 328 328 321 313 313 315 316 313 311 311 311 313 313 314 318 323 328 330 330 330 330 331 332 332 332 332 332 332 333 332 332 332 332 332 331 332 331 331 329 327
332 334 332 332 334 334 332 327 325 326 327 328 328 326 324 322 321 320 319 319 318 316 315 314 313 311 308 311 322 329 330 331 333 333 332 329 325 319 311 313 320 324 324 324 326 328 328 322 314 312 311 313 313 311 311 310 310 310 311 312 316 321 324 326 327 327 328 329 330 330 329 327 328 330 330 329 328 329 329 329 330 330 330 326 322
332 332 330 332 334 333 330 325 326 327 327 328 329 326 324 322 320 319 318 318 317 316 315 314 314 313 309 314 325 328 330 332 332 333 331 328 324 318 311 310 317 323 323 324 327 328 328 323 312 311 311 311 312 311 313 314 310 310 311 311 311 313 314 316 318 319 321 323 322 321 319 318 319 323 324 325 324 323 323 324 325 325 325 322 318
332 329 327 331 333 332 329 326 328 327 327 329 329 327 324 322 320 318 317 316 317 316 315 315 314 314 310 314 325 328 330 331 331 333 330 329 324 317 312 310 315 320 322 324 325 325 324 320 313 311 311 310 311 310 313 314 310 311 312 311 311 311 311 312 312 312 313 314 313 311 311 312 314 317 320 321 320 317 318 319 319 321 322 322 322
331 327 325 328 331 330 330 329 328 328 328 329 328 327 324 322 319 318 316 315 316 317 315 315 315 315 313 314 323 326 329 330 331 332 331 330 325 318 311 310 315 319 322 324 324 322 319 319 317 313 312 311 310 311 311 311 310 311 311 311 312 312 312 312 313 313 313 315 315 315 317 318 319 320 321 321 321 321 322 322 322 324 324 324 325
330 329 326 326 329 329 331 330 328 328 327 328 327 326 325 322 320 318 316 315 316 317 316 315 315 315 315 316 322 325 328 330 331 331 331 329 327 322 313 309 313 317 321 323 321 321 320 321 319 315 313 313 312 312 311 311 311 312 312 312 312 312 313 313 314 314 316 319 321 323 324 324 324 324 324 324 325 325 326 325 325 325 325 325 325
330 330 328 327 328 329 330 329 327 327 326 326 326 326 325 323 320 318 316 315 317 318 317 315 315 315 315 316 322 327 329 329 329 330 330 328 328 325 316 309 310 315 319 320 319 321 322 322 320 319 316 315 314 312 312 312 313 314 314 314 314 314 314 315 316 316 316 319 322 325 326 326 326 326 326 326 326 326 325 325 324 325 325 326 326
331 330 329 329 328 330 330 328 326 324 324 324 326 326 326 325 321 318 316 315 317 319 319 317 315 315 316 316 321 326 328 328 330 330 329 328 328 327 320 311 309 315 319 320 323 323 324 323 323 324 321 319 317 314 314 314 315 316 316 317 317 317 317 317 317 318 318 319 321 322 324 324 325 325 325 325 325 325 324 325 326 326 325 325 325
331 330 329 329 328 329 329 327 325 323 323 324 326 326 327 326 322 318 317 315 317 320 320 318 316 315 315 316 319 324 326 328 329 329 329 328 328 328 321 311 308 313 319 322 324 324 323 323 323 325 325 323 320 317 317 317 319 319 318 320 320 320 320 320 320 320 321 321 321 321 321 321 322 323 322 323 323 322 323 324 324 324 325 325 324
330 330 329 328 328 327 328 329 326 323 323 324 325 325 326 326 323 319 317 316 316 319 321 320 317 316 315 314 317 321 325 326 327 328 328 327 327 327 321 312 309 312 318 321 323 323 322 321 321 321 322 323 322 320 320 321 321 320 320 321 322 322 322 322 322 322 322 322 322 322 323 323 323 323 322 322 322 321 322 322 323 324 324 325 324
330 329 328 328 327 327 328 329 327 324 323 324 324 324 324 325 325 321 317 316 315 318 321 322 319 317 315 314 313 316 319 321 322 324 324 323 324 325 320 312 308 310 313 316 319 321 321 321 320 318 317 320 322 321 322 322 321 320 321 322 323 323 323 324 324 324 324 324 325 325 326 325 325 324 323 323 323 323 323 323 324 324 324 324 323
329 329 329 328 327 327 328 329 327 325 323 325 325 323 323 324 326 322 318 317 315 317 320 322 322 319 316 315 313 311 312 314 316 317 318 319 322 323 318 311 308 308 309 311 316 321 322 320 318 317 315 316 319 321 321 321 321 321 322 323 323 324 324 325 325 325 326 326 327 327 327 325 325 324 324 324 325 325 324 324 325 324 323 323 322
328 328 329 328 328 327 328 329 327 324 324 327 326 322 322 323 325 323 319 318 317 316 318 321 322 321 318 316 315 312 310 310 310 311 312 314 317 320 317 310 307 308 309 312 317 321 322 319 317 316 316 317 318 320 321 321 321 322 323 324 324 325 325 325 325 325 326 327 327 327 326 325 324 324 323 324 324 324 323 324 323 322 322 321 321
328 328 328 328 329 328 327 328 327 325 325 327 326 321 321 321 322 322 321 321 318 316 317 320 322 322 320 317 315 314 311 308 308 308 308 309 311 317 316 309 307 307 309 314 317 320 321 319 317 316 317 317 319 320 321 322 322 322 323 324 324 325 325 325 325 325 326 326 326 325 324 324 323 323 322 323 322 321 321 321 321 321 320 319 318
328 328 328 329 329 328 328 326 326 327 325 327 326 321 322 321 320 322 323 323 320 317 317 319 322 322 322 320 317 316 314 310 308 306 307 307 307 313 312 308 307 307 312 316 317 318 319 317 316 316 316 317 318 320 321 322 322 323 323 323 325 325 326 325 325 325 326 325 325 324 324 323 322 320 318 318 317 316 316 315 314 315 315 314 313
329 328 327 328 328 328 328 326 325 325 325 326 325 322 322 322 321 321 322 323 321 319 317 318 320 322 322 321 319 316 316 314 310 307 306 306 307 308 308 307 307 309 315 317 318 318 318 317 316 315 315 316 318 319 321 322 323 323 323 323 324 325 325 325 325 325 325 325 324 324 322 321 319 316 313 312 312 312 311 309 307 307 307 307 307
330 329 328 328 327 328 328 327 326 325 325 324 325 323 322 322 322 322 322 323 323 321 319 318 318 319 320 321 320 317 316 316 314 311 307 306 306 306 307 306 308 313 317 318 318 318 317 317 315 314 313 314 316 318 320 322 323 323 323 324 324 325 325 325 324 325 324 324 322 320 319 316 313 310 308 307 306 306 305 304 303 303 303 303 303
330 329 329 329 328 327 327 327 327 326 325 325 325 324 323 322 322 323 322 323 324 323 321 320 318 318 319 319 319 318 316 317 317 315 311 308 306 306 306 306 311 316 318 318 319 319 318 316 315 314 312 312 313 315 318 320 323 323 323 323 323 324 324 323 323 323 323 322 320 319 317 315 311 307 306 304 303 303 302 302 302 301 301 301 301
331 330 330 331 330 329 327 328 327 327 327 326 325 325 324 323 323 323 323 323 324 324 322 321 320 317 318 318 318 318 317 316 317 318 316 311 307 306 306 308 314 318 318 318 319 319 318 317 315 313 311 311 311 312 314 318 321 323 324 323 322 322 322 322 322 322 321 320 320 320 318 315 311 308 307 306 305 304 302 301 301 301 301 301 300
332 331 331 332 332 331 329 328 328 328 328 326 326 326 325 324 323 323 323 323 323 324 324 322 321 319 317 317 317 317 317 317 317 318 319 315 310 307 308 311 316 319 318 318 319 320 319 319 317 314 311 310 310 311 312 315 319 322 323 323 322 322 321 321 321 320 319 320 320 321 319 315 311 309 308 307 305 303 302 301 301 301 301 301 301
332 331 332 333 333 332 331 330 330 329 329 327 326 326 326 325 323 322 323 324 323 324 324 323 322 321 319 317 317 317 317 317 317 318 319 318 314 309 310 313 317 319 319 319 319 320 320 320 319 316 312 310 310 311 311 313 316 320 322 322 322 321 321 320 319 318 318 318 319 320 318 315 314 311 309 307 305 303 302 301 301 301 301 301 300
331 331 332 333 333 333 333 332 331 331 329 327 327 326 326 326 325 323 322 323 324 324 324 324 323 322 320 318 317 317 318 317 317 318 319 320 317 313 312 314 317 319 320 319 319 320 320 320 321 319 314 310 310 310 311 313 314 318 321 322 321 320 320 319 317 316 316 317 318 319 317 316 315 313 311 307 305 303 302 302 302 302 301 300 299
328 330 331 332 332 332 333 333 333 332 331 328 326 327 326 327 327 325 323 323 324 324 324 324 324 323 322 319 318 317 317 318 317 317 318 320 320 317 315 315 317 319 320 320 320 320 320 321 321 321 317 311 309 310 310 312 314 316 319 321 321 320 319 317 315 315 316 317 318 318 318 317 316 314 311 307 305 303 302 303 303 302 300 299 300
325 328 330 330 330 331 332 333 334 333 332 329 327 327 327 328 328 327 325 323 323 324 324 324 324 324 323 321 319 318 317 318 318 318 318 319 320 320 318 316 316 319 320 321 321 321 320 321 322 322 320 313 309 309 310 312 314 315 317 319 320 319 317 315 315 315 316 317 318 318 317 317 315 314 310 307 306 306 306 306 304 301 299 299 300
323 325 325 325 326 328 331 332 333 333 333 331 329 329 329 329 330 330 328 326 324 324 324 324 324 324 324 323 321 319 318 318 318 319 318 318 319 320 320 318 316 317 319 320 321 321 321 321 322 322 321 316 310 309 310 311 313 314 315 317 318 318 316 315 315 315 316 317 317 317 317 316 315 313 309 307 307 308 309 309 308 306 305 304 303
320 321 321 321 321 324 328 330 331 332 333 333 331 330 330 330 331 331 330 329 327 325 325 325 324 325 324 324 323 322 320 319 319 319 319 318 318 319 320 320 317 317 318 320 320 321 321 321 322 322 322 319 311 308 310 311 313 314 314 315 317 317 315 315 315 315 316 316 316 316 316 316 314 311 308 309 309 309 309 309 309 308 308 307 306
318 318 318 318 317 319 323 327 329 331 332 333 332 332 331 331 331 331 331 330 329 328 327 326 325 325 325 325 324 323 322 321 320 319 319 318 318 318 320 321 320 318 318 319 320 320 321 321 321 322 322 321 313 308 309 312 313 313 314 315 315 315 315 314 315 315 315 315 315 316 316 315 313 310 308 310 310 309 309 309 308 309 308 308 307
317 316 317 317 316 316 319 323 326 328 330 331 332 332 332 332 332 332 331 331 331 330 329 327 326 326 325 325 325 324 324 323 322 321 320 319 318 318 318 320 321 320 319 319 320 320 320 320 321 322 322 322 316 309 309 312 313 313 313 314 314 314 314 315 315 315 315 315 314 314 315 314 312 309 308 309 310 309 309 309 308 309 309 308 307
316 316 316 316 315 316 316 319 322 326 328 330 330 331 331 332 331 331 331 331 331 331 330 329 328 327 326 325 325 325 324 324 324 323 321 320 319 318 318 318 320 321 321 320 320 320 320 320 320 322 322 322 318 311 308 311 313 314 313 313 314 314 314 315 316 316 315 315 313 312 312 312 311 309 306 306 307 309 310 309 308 309 308 307 306
315 315 315 315 315 315 315 316 319 322 325 328 328 329 330 331 331 331 331 331 331 331 331 331 330 329 328 326 325 325 324 323 324 325 323 321 320 319 319 319 319 320 321 321 321 320 320 320 320 322 322 321 319 313 308 311 313 314 314 313 314 315 315 316 316 316 316 315 313 311 310 310 310 308 305 304 305 308 309 308 309 309 308 307 307
315 315 315 315 316 315 315 316 317 319 322 325 326 327 328 329 330 330 331 331 330 330 331 332 332 331 329 328 326 326 324 323 323 325 325 323 322 321 320 321 320 321 321 321 321 321 320 320 321 321 322 321 319 314 309 310 314 314 314 314 315 316 316 316 317 317 316 315 313 311 310 309 309 306 303 303 303 306 308 308 308 308 308 308 307
315 315 315 315 316 315 315 316 316 317 318 321 324 325 326 328 329 329 330 331 331 331 330 331 332 332 331 330 328 327 326 324 323 324 325 325 324 323 322 322 322 322 322 322 322 322 321 321 321 321 322 321 319 316 311 310 314 315 315 316 316 316 316 317 317 317 316 315 314 312 311 309 308 304 302 302 302 306 309 309 307 307 307 307 307
315 315 315 315 315 315 315 315 315 315 316 318 322 324 325 326 328 328 328 329 331 331 330 331 332 332 332 331 330 328 327 326 324 323 325 326 326 325 324 324 324 324 323 323 322 322 322 321 321 321 322 322 320 317 313 310 312 315 317 317 317 317 317 317 317 317 316 315 314 312 311 310 307 304 303 300 301 304 307 309 308 307 307 307 307
315 315 315 315 315 315 315 315 315 315 315 315 318 321 323 324 326 325 325 328 330 331 331 331 331 331 332 332 331 330 329 327 325 324 324 326 327 326 326 325 325 325 324 324 323 322 322 321 321 321 321 322 321 319 315 311 311 314 316 317 318 317 317 317 317 317 316 315 314 313 311 309 307 305 303 299 299 301 303 306 307 306 306 306 306
315 315 315 315 315 315 315 315 315 315 315 315 315 317 320 323 325 325 324 325 327 330 331 331 330 330 330 330 330 330 329 328 327 326 324 325 326 327 327 327 326 326 325 324 323 323 322 322 321 321 321 321 322 320 317 313 311 312 315 317 318 318 317 317 316 316 316 315 314 313 311 310 307 306 304 299 297 299 300 302 303 303 305 306 305
315 315 315 315 315 314 315 315 315 315 315 315 315 315 316 319 322 325 325 324 324 325 327 329 330 329 329 329 328 328 329 328 328 327 326 326 327 328 328 327 327 327 326 325 324 323 323 322 322 322 321 321 321 321 319 316 312 311 313 316 317 318 318 317 316 315 315 315 314 313 312 310 309 307 303 298 297 297 297 299 299 300 303 305 305
316 315 315 315 315 315 315 315 315 315 315 315 315 315 316 317 319 321 323 323 322 324 327 327 327 329 329 328 329 329 327 327 329 328 326 327 327 327 327 327 328 328 327 326 325 324 323 323 323 323 322 322 321 321 320 318 315 312 313 315 316 317 317 316 316 315 315 315 314 314 312 311 310 306 302 297 296 297 296 297 297 298 299 301 303
316 316 316 316 316 315 315 315 315 315 315 315 316 316 317 319 321 323 323 324 323 325 327 325 325 327 327 329 333 330 324 324 328 328 326 326 325 325 325 325 326 327 327 327 326 325 324 324 324 323 322 322 322 321 320 319 317 315 313 314 315 315 316 316 316 315 315 314 314 314 312 312 310 305 300 296 296 296 296 296 296 296 297 298 300
317 316 316 316 316 316 316 316 316 315 315 316 316 317 318 320 323 326 328 328 328 329 327 324 326 328 328 330 331 325 323 326 328 327 327 327 326 324 324 324 324 324 326 326 326 326 326 325 325 323 322 322 322 321 320 319 318 316 314 314 315 315 315 316 315 314 314 314 314 313 312 313 310 303 298 295 295 295 295 295 295 295 294 295 297
316 316 316 316 317 316 316 317 316 316 316 316 316 316 318 320 322 325 326 327 329 331 329 325 324 325 325 326 325 322 326 330 330 329 328 326 326 326 325 324 324 324 325 325 325 326 326 325 324 323 322 321 322 322 321 318 317 316 315 315 315 315 315 315 315 314 314 314 313 313 313 313 308 300 296 295 295 295 295 295 295 294 293 294 295
316 316 316 316 316 317 316 317 317 316 316 316 317 316 317 318 319 321 323 324 325 326 328 327 324 320 319 323 327 328 329 330 332 331 329 326 325 327 328 325 325 325 325 326 325 324 325 324 324 324 323 321 321 321 321 319 317 316 315 315 315 314 314 315 314 314 314 313 313 312 313 312 306 297 295 295 295 295 295 295 294 294 293 293 293
316 316 316 316 316 317 317 317 317 317 316 316 316 316 317 317 318 320 321 324 324 323 325 326 326 324 324 328 332 333 331 329 330 331 331 330 325 325 328 328 327 327 326 327 326 325 324 324 324 325 324 323 320 319 320 320 319 318 315 314 315 315 314 314 314 314 314 313 313 313 312 311 303 295 294 294 294 294 294 294 294 294 293 293 292
315 315 316 316 317 317 317 317 317 317 317 316 316 316 317 318 320 322 322 324 325 325 325 325 326 326 328 331 331 332 333 331 330 328 328 329 326 325 329 330 328 328 328 327 327 326 324 323 323 323 324 324 322 321 321 319 320 320 317 314 312 311 312 313 314 314 314 313 313 313 311 308 301 295 294 294 294 294 294 294 294 294 293 292 292
315 315 316 316 316 317 317 317 317 317 317 317 317 317 318 319 320 322 324 325 326 326 327 326 325 324 324 325 324 323 328 332 332 330 329 329 327 325 328 330 329 329 329 329 329 328 325 324 323 322 324 324 323 323 321 319 319 320 319 317 313 310 313 313 312 313 313 313 313 312 311 307 300 295 294 293 293 293 294 294 294 293 293 293 292
315 315 315 316 316 317 317 317 317 317 317 317 317 317 317 318 320 321 322 324 324 324 324 323 323 323 322 321 319 317 321 326 328 328 329 329 326 323 324 326 328 329 330 330 329 327 327 326 324 323 323 324 323 322 321 320 319 318 319 320 318 316 317 315 312 311 311 312 312 311 311 306 299 295 294 293 293 293 293 293 293 293 293 293 292
315 316 316 316 316 317 316 317 317 317 317 317 317 318 318 318 319 320 320 321 321 320 320 320 320 321 321 321 320 318 320 325 328 326 325 324 324 326 327 327 328 329 329 329 328 328 327 325 324 324 323 323 322 322 322 321 318 318 319 320 321 320 319 317 314 311 310 311 311 310 309 306 300 295 294 294 293 293 293 293 293 293 293 293 292
316 316 316 317 316 317 317 317 317 317 317 317 317 317 318 318 318 319 319 319 319 319 320 321 321 321 322 321 321 321 321 324 327 326 327 327 326 325 326 326 325 325 325 325 324 324 323 322 323 324 322 321 322 322 323 321 320 321 321 320 321 320 319 317 315 312 309 309 309 308 308 306 301 297 295 294 293 293 293 292 293 293 293 293 293
317 317 317 317 317 317 317 317 317 317 317 317 317 318 318 318 318 318 318 318 319 320 321 321 322 321 321 321 321 322 321 322 322 322 325 328 328 327 326 326 326 326 326 326 324 324 322 320 321 323 321 321 322 322 322 322 322 322 321 321 321 320 318 316 314 312 309 307 306 306 307 306 304 301 298 295 294 294 294 293 292 292 292 292 293
317 317 318 318 318 318 318 318 318 318 317 318 317 317 318 317 317 317 317 318 318 319 320 320 320 320 320 320 320 320 321 321 322 321 322 324 325 327 327 328 328 327 326 325 325 324 322 319 321 323 323 322 322 321 320 320 321 321 321 322 322 320 318 315 315 314 312 309 307 306 307 308 309 308 303 298 296 295 294 294 293 293 292 292 292
317 318 318 318 318 318 318 318 318 318 317 318 317 317 317 317 316 316 316 317 317 318 318 318 319 319 319 318 318 319 319 319 320 321 322 322 322 323 323 325 325 323 322 322 321 321 320 320 322 323 322 322 322 321 319 319 319 318 318 320 321 321 320 317 317 318 317 314 312 310 309 310 311 310 305 301 299 296 294 294 294 294 293 292 292
Wind_Speed
16 16 15 14 14 13 12 12 12 13 13 13 12 12 13 12 13 13 13 13 12 11 11 12 13 14 15 15 17 20 18 16 16 13 11 10 10 13 14 15 16 17 17 17 18 17 17 16 17 18 17 17 17 17 17 17 17 16 15 14 15 15 14 14 15 15 16 18 20 20 20 20 20 20 20 20 22 23 23 24 24 24 24 23 22
17 17 16 15 15 13 12 12 12 13 13 12 12 12 12 12 12 12 12 13 12 11 11 12 13 14 15 17 21 21 18 16 15 12 10 9 10 12 13 13 15 16 16 17 17 18 17 15 16 17 17 17 16 17 16 17 17 16 16 14 13 13 12 12 12 11 12 13 15 16 18 19 19 19 19 18 19 19 19 20 20 21 21 19 19
16 16 16 17 16 14 13 13 13 13 13 12 12 12 11 11 11 11 12 12 12 11 11 12 13 14 15 18 21 19 17 16 14 12 9 9 9 10 11 11 13 15 15 16 18 18 16 14 15 15 16 16 16 16 16 16 17 17 16 15 13 12 11 10 9 9 9 10 10 11 12 15 16 17 17 17 17 16 16 17 17 18 16 15 16
16 16 17 18 17 15 13 13 13 13 12 12 12 11 11 11 11 11 11 11 11 11 11 12 12 14 15 17 20 18 17 15 13 11 9 9 9 9 10 10 12 14 15 16 18 18 16 15 16 16 15 15 15 15 16 16 17 17 17 16 15 14 12 11 11 10 11 11 11 11 12 14 15 17 17 17 17 16 15 16 16 15 15 15 17
17 16 17 18 17 15 14 14 14 13 12 12 11 10 10 10 10 10 10 11 11 11 11 12 12 14 14 17 19 17 16 14 13 10 8 9 8 8 9 9 11 13 14 16 17 17 16 15 16 17 16 15 16 16 16 16 17 17 17 17 16 16 16 15 14 14 14 14 15 16 19 21 22 21 19 18 18 18 17 18 19 18 19 20 21
17 16 17 17 17 16 14 14 13 13 12 11 11 9 9 9 9 10 10 10 11 11 12 12 12 13 14 16 18 16 15 13 12 10 8 9 9 8 8 8 11 12 14 16 16 16 16 16 16 17 16 15 16 16 16 17 18 18 18 18 18 18 18 19 19 18 18 19 21 22 24 26 26 24 21 20 20 21 21 21 22 22 23 22 23
17 16 16 16 16 15 14 13 13 12 11 11 9 8 8 8 8 9 9 10 11 11 12 13 12 13 13 15 17 16 14 12 11 9 7 7 7 7 7 7 9 11 13 14 15 15 16 16 16 17 16 15 15 16 17 18 19 19 19 19 20 20 21 22 22 22 22 23 25 25 25 25 26 23 20 21 21 22 21 21 22 21 22 23 23
17 16 16 16 15 15 14 12 12 11 10 9 8 8 7 7 8 8 9 10 11 11 12 13 13 13 12 13 15 15 13 11 10 8 7 6 6 6 6 6 7 10 12 13 14 15 16 16 16 17 16 16 16 17 18 18 19 19 19 19 19 20 21 22 23 24 25 25 25 25 24 24 24 23 20 20 21 21 21 21 21 21 22 23 23
17 16 16 15 15 14 13 12 11 9 8 8 7 7 7 7 7 8 9 10 10 11 12 13 12 12 12 12 14 14 12 11 9 8 6 5 5 5 5 5 6 9 12 13 15 17 16 14 15 16 16 16 15 15 16 17 18 18 18 19 19 20 20 21 22 24 25 26 25 24 23 22 22 21 19 19 20 20 20 21 22 22 22 22 21
17 16 16 15 15 13 12 11 9 8 7 6 6 6 6 6 6 7 8 9 10 10 11 12 12 12 12 12 13 13 11 10 9 7 6 4 5 5 5 5 5 8 12 14 15 17 15 13 15 15 14 15 14 14 15 16 17 16 17 18 19 20 20 21 22 23 25 25 25 24 23 22 21 20 18 18 19 19 20 21 21 20 21 20 20
17 16 15 15 14 13 12 10 9 7 6 6 6 6 5 5 6 6 7 8 9 9 9 11 11 11 11 11 12 12 11 10 8 7 6 5 6 6 5 5 5 7 11 13 14 15 14 14 13 13 13 14 14 14 15 15 15 15 17 18 19 20 21 22 22 23 24 24 24 24 23 22 23 21 19 18 18 18 18 19 19 18 19 18 18
18 17 15 15 14 13 12 10 9 7 6 6 6 5 5 5 5 5 6 7 8 7 8 9 10 10 10 11 10 9 8 8 7 6 4 4 5 5 5 5 5 6 9 12 13 13 13 13 12 11 11 12 13 14 14 14 14 15 17 18 19 20 21 22 22 23 24 24 24 24 23 23 23 21 19 18 18 18 18 19 18 17 17 17 17
18 17 16 15 14 13 12 11 10 8 7 6 6 5 4 5 4 4 4 5 6 7 7 8 8 9 9 9 8 7 6 5 4 3 2 2 3 4 4 3 4 5 8 11 12 12 13 13 12 11 10 10 12 13 13 13 13 15 17 18 18 19 21 21 21 22 23 24 24 23 22 21 20 18 17 17 17 18 17 17 17 16 15 15 15
18 17 17 15 15 14 12 12 10 8 7 7 6 4 4 4 4 3 4 4 5 6 6 6 7 7 8 8 8 7 6 5 3 2 1 2 3 3 3 3 4 6 8 11 11 12 12 12 12 12 11 11 11 12 12 12 13 15 16 17 18 19 20 20 20 21 22 23 22 21 19 18 17 15 15 15 15 15 14 14 13 12 12 11 11
17 17 16 16 15 14 13 12 11 9 8 8 7 5 4 4 4 4 4 3 4 5 5 6 6 6 6 7 7 6 6 5 4 3 2 1 3 4 3 3 4 6 8 10 11 11 12 12 12 12 11 11 11 11 11 11 13 14 15 16 17 18 18 18 19 20 21 20 19 18 17 16 13 12 11 12 11 10 9 9 8 8 8 8 8
17 16 16 16 15 14 13 12 12 10 9 8 7 6 4 4 4 4 4 3 3 4 4 5 5 5 5 6 6 5 5 5 5 4 3 3 4 6 5 3 5 6 8 9 10 11 11 11 11 11 11 11 11 10 10 11 12 13 14 15 16 16 16 16 17 17 18 18 17 16 15 12 11 10 8 8 8 7 7 6 6 6 5 6 6
17 16 15 16 16 15 14 13 12 11 10 9 7 6 5 4 4 4 4 3 3 3 3 4 4 4 4 4 5 4 5 5 5 5 5 5 6 6 5 5 6 7 8 9 10 10 10 10 10 10 10 10 10 10 9 10 11 12 13 14 15 15 15 15 15 16 16 15 14 12 10 8 8 7 6 7 7 6 6 5 4 4 4 5 5
18 17 16 15 16 15 14 14 13 12 11 10 9 8 7 5 4 4 3 3 3 2 2 2 2 3 2 2 3 3 4 4 4 5 5 6 6 7 6 6 8 8 8 9 9 9 9 9 9 9 9 9 8 9 9 9 10 11 12 13 14 14 14 13 14 14 13 12 11 10 9 8 7 7 7 8 7 6 5 4 4 4 4 5 5
19 18 18 16 16 16 15 15 14 13 12 12 11 10 9 8 6 5 5 4 4 3 2 2 1 2 2 2 2 2 3 3 3 4 5 6 6 7 6 7 9 8 8 8 8 8 8 8 8 8 8 8 7 7 7 8 9 9 10 11 12 13 13 12 12 12 11 11 10 10 10 8 8 9 9 9 7 6 4 3 3 4 5 6 6
20 20 19 18 17 17 17 16 16 15 14 13 12 11 10 9 9 8 6 5 5 5 3 3 2 2 3 3 2 2 2 2 2 3 4 5 6 6 6 7 9 8 7 8 7 8 7 7 7 7 7 7 6 6 6 7 8 9 9 10 10 11 12 11 11 11 11 11 10 12 12 10 9 9 8 7 6 4 3 2 3 4 5 6 6
22 22 21 20 19 18 18 17 17 16 15 14 13 13 11 11 11 10 8 7 7 6 5 4 3 3 3 3 2 2 2 1 2 2 3 4 5 6 6 6 8 7 7 7 6 6 6 6 5 5 5 6 6 5 5 7 8 9 9 9 10 10 11 11 11 11 11 12 12 12 11 10 9 8 7 6 5 4 2 2 4 6 5 6 6
24 23 23 21 21 19 19 18 17 17 16 15 14 14 13 12 12 11 11 9 8 7 6 5 4 3 3 3 3 3 3 2 3 3 3 4 4 5 5 6 6 6 6 6 5 4 4 4 4 4 4 5 5 5 5 6 7 9 10 10 10 10 10 11 11 11 11 12 12 10 7 6 6 5 7 6 6 5 4 4 5 6 6 7 7
26 25 24 23 22 20 20 19 18 17 17 17 16 15 14 13 13 12 12 11 10 9 8 7 6 4 4 4 4 4 4 4 4 4 5 5 5 6 6 6 6 5 5 5 4 3 3 3 3 3 3 3 4 4 4 5 7 9 10 11 11 10 11 11 11 12 12 12 11 9 5 4 3 3 6 7 7 6 6 6 7 8 8 8 8
26 25 25 24 23 22 21 20 19 19 18 18 17 17 16 15 14 14 13 13 12 11 10 9 8 7 6 5 5 6 6 6 5 5 6 6 6 6 6 6 6 6 4 4 4 3 2 1 1 1 1 2 3 3 3 5 7 9 10 11 11 11 11 11 12 12 12 12 10 8 5 3 1 3 6 7 7 6 6 8 9 9 9 8 8
24 25 26 26 24 23 22 21 21 20 20 19 19 18 17 17 16 15 15 14 14 13 12 11 10 9 8 7 6 6 7 7 7 6 6 7 7 7 7 7 7 7 5 5 4 4 3 2 0 1 0 1 2 2 2 4 7 10 11 12 12 12 12 12 12 13 13 12 10 7 5 3 1 3 7 8 8 8 10 11 10 10 8 8 8
24 25 25 25 25 24 23 23 22 21 21 21 20 20 19 19 18 17 16 16 15 15 14 13 12 11 10 9 8 7 8 8 8 7 7 7 8 8 8 8 8 8 8 7 6 5 4 3 2 1 2 1 1 2 3 4 7 9 11 12 13 13 13 13 13 13 13 12 10 7 5 4 2 3 7 8 9 11 13 14 13 13 12 11 11
23 23 23 23 24 24 24 24 23 22 22 22 22 22 21 21 20 19 17 17 17 17 16 15 14 13 12 11 10 9 8 8 8 8 8 8 9 9 9 9 10 10 10 9 7 6 5 4 4 3 3 3 3 3 5 5 7 9 11 13 14 15 15 14 14 14 13 12 10 8 6 5 1 3 7 9 11 12 13 14 13 14 13 13 13
22 23 22 22 22 22 24 24 24 23 23 23 23 23 23 22 22 21 19 19 18 18 17 17 16 15 14 13 12 11 10 9 9 9 9 9 10 10 10 10 11 11 11 10 9 8 7 6 5 5 5 5 5 5 7 8 9 10 12 13 15 16 16 16 16 15 14 13 11 10 8 6 1 4 7 10 11 11 12 12 13 13 12 12 13
23 22 21 21 21 21 22 24 25 24 24 24 24 24 24 24 24 23 22 20 19 19 18 18 18 17 16 15 14 13 12 11 10 10 10 10 10 11 11 11 11 12 12 11 11 10 9 8 7 6 6 6 6 6 8 10 11 12 13 15 16 17 18 18 17 16 15 13 11 10 9 6 2 3 6 8 9 10 11 11 12 12 11 12 12
22 21 22 21 20 20 21 23 24 25 25 25 25 25 25 26 25 24 23 22 21 20 20 20 19 19 18 17 17 16 14 13 12 12 12 11 11 11 12 12 12 12 12 12 11 11 10 9 8 8 8 8 8 7 9 11 13 14 15 16 18 18 19 19 18 17 15 14 11 10 8 7 4 1 3 5 7 10 10 10 11 11 11 11 11
22 22 22 22 21 22 21 22 24 25 26 27 27 26 26 27 26 25 25 24 23 22 22 22 21 20 20 19 19 18 17 16 15 14 14 13 13 12 12 12 12 12 13 13 13 13 12 11 10 9 9 9 9 9 10 13 15 15 17 18 19 20 20 20 19 17 16 15 12 9 8 7 6 3 1 1 3 7 8 10 11 9 9 11 10
21 20 21 23 23 23 23 23 24 25 27 28 28 28 27 27 27 26 26 25 24 24 24 24 23 22 21 21 21 20 19 18 18 16 15 15 14 14 13 13 13 13 13 13 14 14 14 13 12 11 11 11 10 10 11 15 17 17 19 20 20 21 21 20 20 18 17 16 13 11 9 8 7 5 2 2 1 3 6 9 12 9 8 10 10
20 20 21 24 24 23 24 24 24 25 27 28 29 29 28 28 28 28 27 27 26 26 25 25 25 24 23 22 22 22 21 20 20 18 18 17 16 16 15 14 14 14 14 14 15 16 16 16 15 14 13 12 12 12 12 16 19 20 21 21 21 22 22 22 21 20 19 17 15 13 11 9 8 7 5 3 2 4 7 8 11 12 11 10 10
21 22 24 24 24 24 24 25 25 26 26 27 29 30 29 29 29 29 28 28 28 28 27 27 26 25 24 23 23 23 23 22 22 21 20 19 19 19 17 16 16 15 15 16 16 17 17 17 17 16 15 14 13 13 13 16 20 23 23 23 23 23 23 22 22 21 20 19 17 14 12 11 10 8 7 5 4 5 8 9 10 10 11 11 11
24 24 24 24 24 25 25 26 26 26 27 27 29 30 31 30 30 30 30 29 29 29 29 28 28 26 25 24 24 24 24 24 23 23 22 22 21 21 20 19 18 17 17 17 18 18 18 18 18 17 17 16 15 15 15 16 20 24 25 25 24 25 24 24 23 22 21 20 18 16 14 13 12 11 9 7 8 8 8 9 10 9 9 10 12
25 24 24 25 26 26 26 27 26 27 27 27 28 29 30 31 31 31 30 30 30 30 30 30 29 28 27 26 25 25 26 25 25 25 25 24 24 23 23 22 21 19 18 18 19 19 19 19 19 19 18 18 17 17 16 17 20 23 25 26 26 26 26 26 25 23 22 21 20 18 16 16 15 13 12 10 10 11 10 10 9 9 9 10 11
25 25 25 26 26 26 27 27 27 27 27 27 27 27 29 29 30 31 31 32 31 29 29 29 30 30 28 28 27 26 26 26 26 26 25 25 25 24 23 23 22 21 20 20 20 20 20 21 21 20 20 19 19 18 18 18 20 23 26 27 27 27 27 27 25 24 24 23 22 20 19 18 17 16 14 13 12 12 12 12 11 10 10 10 10
24 25 25 26 26 26 27 27 27 27 27 28 28 27 28 28 28 29 30 31 30 30 29 28 28 30 31 30 29 27 26 27 27 27 26 25 24 24 24 23 22 21 21 22 22 22 22 22 22 22 21 21 21 20 19 19 21 23 26 27 27 28 28 28 27 26 26 25 25 23 22 21 20 19 17 15 14 14 14 13 13 12 11 10 10
22 23 24 25 26 26 27 27 27 27 27 28 28 28 28 29 29 29 29 30 29 29 31 30 27 29 30 29 30 30 27 25 26 27 27 25 24 25 26 24 23 23 23 23 24 24 23 24 25 24 24 23 22 21 20 21 22 23 26 28 29 29 29 29 29 29 29 28 27 26 25 24 23 21 19 18 17 16 16 15 15 14 13 12 11
23 23 24 25 25 25 26 26 26 26 26 28 28 29 30 31 31 32 33 31 31 32 32 30 28 30 31 30 32 31 26 24 25 25 26 27 26 25 26 26 26 26 25 25 26 25 25 27 28 27 27 27 26 24 24 23 24 25 28 29 30 30 30 30 30 31 31 31 30 29 28 27 25 23 21 20 19 18 17 17 17 16 15 14 13
25 25 25 25 24 24 24 24 24 24 26 27 28 29 31 32 32 34 35 33 33 35 35 33 30 31 31 32 32 27 25 30 31 27 25 27 29 29 27 27 27 26 27 27 25 26 28 30 30 29 30 30 29 28 27 26 26 27 29 30 31 31 31 32 33 33 33 34 33 32 31 29 27 25 23 22 21 21 20 19 19 18 17 16 15
26 25 24 23 23 24 24 22 22 24 25 25 27 28 29 30 31 32 32 32 31 32 35 35 33 30 28 29 32 29 26 31 36 33 26 24 29 33 32 31 30 27 28 30 29 28 30 33 32 31 32 33 32 31 30 29 28 29 30 31 32 33 34 35 35 35 36 37 36 36 35 32 30 27 26 25 24 23 22 22 21 20 19 18 18
26 25 25 24 24 24 23 22 22 23 23 23 25 26 26 27 28 29 29 29 29 28 31 34 34 32 28 28 35 35 30 32 36 36 31 27 30 34 36 36 36 32 30 31 33 32 31 34 35 35 35 35 35 34 32 31 30 30 31 31 32 33 34 37 40 40 39 40 39 38 37 35 32 30 29 28 27 25 25 24 24 23 22 21 20
27 27 26 25 25 24 22 21 21 21 21 22 22 23 24 26 27 28 28 28 29 28 29 31 33 33 31 31 35 36 35 35 35 34 35 34 35 35 38 41 41 40 36 34 36 37 33 32 32 35 40 41 39 37 35 35 34 32 30 30 30 29 33 39 42 42 43 42 42 41 39 37 35 33 32 31 29 28 27 27 26 25 25 24 23
27 26 25 25 24 23 22 21 21 20 20 20 21 22 24 25 27 28 29 30 31 31 31 31 31 32 33 33 33 34 36 37 35 35 37 37 36 36 39 45 46 43 41 40 41 40 36 33 30 33 42 46 43 40 38 38 37 35 32 31 28 27 34 41 39 40 44 45 45 44 42 40 38 36 35 33 32 31 30 29 28 27 27 26 25
24 23 23 23 23 22 21 21 20 20 19 19 19 21 22 24 26 28 29 30 32 32 31 30 30 30 30 30 31 31 33 35 34 35 36 37 37 36 35 40 45 45 44 45 45 42 40 37 34 36 43 48 47 44 41 40 39 38 37 36 35 34 37 38 35 36 41 44 46 46 45 42 40 39 38 36 35 33 32 31 30 30 29 28 27
20 20 21 21 21 20 20 19 19 18 17 17 18 20 21 22 24 25 27 28 29 30 28 27 27 27 27 28 29 28 29 33 36 36 36 37 37 39 37 35 40 43 43 44 45 43 41 40 41 42 45 50 51 47 44 44 43 41 39 40 41 42 40 38 38 35 33 38 43 45 46 45 43 43 42 40 38 36 35 33 33 32 31 30 29
17 18 19 18 18 18 17 17 17 17 17 17 17 18 19 20 21 22 24 26 27 27 26 26 26 26 26 27 27 28 28 31 35 37 38 38 37 38 38 36 38 40 40 42 44 43 41 43 46 45 46 51 53 50 47 49 48 42 40 41 43 44 42 42 43 39 33 33 35 38 42 44 44 46 45 43 42 40 37 35 34 34 33 32 31
17 18 17 17 17 16 16 16 16 16 16 16 17 17 18 18 19 21 22 23 24 25 25 26 26 26 27 27 26 27 28 29 31 32 35 38 39 38 38 38 40 43 44 46 47 45 41 42 45 45 46 49 51 51 51 53 53 47 42 43 44 43 42 44 44 43 40 36 34 35 37 38 41 47 48 48 46 43 41 38 36 35 34 34 32
17 18 17 17 17 16 16 16 15 15 15 15 16 16 17 18 19 20 20 21 21 23 24 25 26 26 27 27 27 27 28 29 30 31 32 35 37 38 38 38 41 44 45 46 46 45 44 48 51 50 48 48 48 50 53 56 56 52 48 47 47 43 42 43 43 45 47 44 43 43 40 38 41 45 46 48 48 46 44 42 40 38 37 36 34
16 16 16 16 15 15 15 14 14 14 14 14 15 15 16 17 17 18 18 19 19 21 23 24 24 25 26 26 26 26 27 29 30 31 33 34 36 38 40 42 45 46 45 45 45 46 47 50 52 51 49 49 50 50 51 55 58 56 54 53 52 47 42 41 42 44 47 47 47 51 49 45 45 44 41 41 46 48 47 45 44 42 40 38 37
Wind_Direction
146 140 140 137 140 137 135 142 131 124 121 118 114 109 103 95 90 83 76 72 73 79 81 81 81 82 82 85 98 101 97 96 94 90 86 78 75 75 76 86 90 87 87 85 83 81 82 81 76 78 80 80 80 83 86 86 88 95 106 118 123 122 121 117 114 113 110 105 101 98 93 89 87 87 87 91 94 93 92 90 90 88 85 84 85
144 142 142 140 143 141 141 144 133 127 123 121 116 109 100 92 86 80 74 69 70 77 83 82 81 83 83 92 99 97 96 98 94 89 82 76 76 71 71 85 93 91 89 87 86 83 81 78 73 76 79 81 81 83 85 85 86 90 94 103 114 119 120 119 116 115 115 113 112 110 106 101 97 95 94 94 93 92 90 88 87 86 85 81 78
144 144 143 141 144 143 145 145 136 130 126 124 118 110 99 90 83 77 72 67 68 74 84 84 83 82 83 96 99 98 100 98 93 90 80 68 69 70 68 77 88 89 87 87 85 82 80 74 70 72 77 82 81 81 83 84 84 85 88 91 99 109 118 121 122 123 123 122 122 118 116 112 106 103 99 92 86 85 86 86 85 85 83 73 66
147 144 144 144 144 143 146 145 137 134 129 127 123 113 100 91 83 76 70 67 66 72 84 86 84 81 84 99 99 99 102 98 94 89 77 67 67 72 68 73 86 89 88 88 87 87 86 77 70 70 73 80 81 81 81 82 83 83 85 87 91 96 102 107 112 118 122 123 120 115 107 101 96 96 92 85 80 78 79 82 82 84 82 71 66
149 145 145 145 144 145 148 145 139 139 134 132 127 116 103 92 85 78 71 67 68 72 81 84 84 81 85 102 102 101 103 100 97 89 77 71 71 76 71 76 88 89 88 87 88 90 90 81 72 69 71 76 80 81 79 80 81 83 85 88 89 91 94 95 98 101 104 105 102 99 91 83 79 80 81 81 81 78 78 81 83 83 82 77 74
150 145 146 144 145 147 148 145 143 142 136 135 128 119 106 93 86 78 72 69 72 75 79 82 82 82 87 101 105 104 103 101 99 94 84 76 71 75 72 78 90 90 88 88 86 86 86 82 74 68 69 73 79 81 79 80 83 86 88 89 90 91 91 90 89 89 91 92 91 88 85 83 81 80 81 82 83 82 81 83 85 84 83 82 80
151 145 145 144 146 146 145 147 146 142 136 134 128 121 108 97 88 78 74 73 78 80 81 82 81 83 91 102 105 103 103 103 102 101 93 80 70 71 72 77 90 91 89 88 86 84 81 77 70 64 69 75 79 82 81 82 85 88 89 91 91 91 89 89 88 88 89 90 90 89 87 88 89 89 88 88 87 87 86 86 87 87 88 88 86
153 149 147 146 147 145 145 149 147 139 135 133 129 123 113 101 90 82 76 77 84 85 82 80 81 83 90 105 108 105 107 107 105 106 99 85 73 72 76 80 88 91 89 87 85 81 76 71 63 59 66 74 79 84 87 87 89 91 92 93 93 93 93 93 92 92 92 93 93 94 93 93 93 94 94 95 94 94 93 92 91 90 91 90 89
156 152 149 150 150 149 149 151 145 137 136 134 132 128 119 105 92 85 76 79 88 89 85 80 81 84 90 104 110 110 111 112 110 108 106 100 87 76 80 85 88 92 90 88 87 82 77 74 70 65 63 71 80 87 91 92 91 93 95 95 95 96 97 97 97 96 96 97 98 98 97 96 95 96 96 97 96 96 97 96 94 92 91 89 90
160 157 155 155 155 155 153 152 148 142 142 140 138 133 123 109 94 85 76 77 87 92 89 83 81 85 93 103 113 115 114 117 115 110 113 118 105 88 85 90 92 92 90 89 91 91 91 88 84 81 73 72 77 84 88 90 90 94 98 99 99 99 100 100 100 99 99 101 102 102 101 101 100 98 98 98 98 99 98 95 93 92 91 90 91
162 162 161 160 160 160 157 157 156 151 149 147 144 141 131 119 103 87 79 75 83 93 91 86 79 81 89 100 117 123 121 124 130 130 119 104 97 90 85 91 93 87 89 91 92 96 100 100 97 97 93 85 82 86 89 93 96 99 101 101 103 102 101 101 100 99 100 101 102 102 102 103 102 99 96 95 97 99 97 94 92 93 92 92 93
167 167 166 166 165 165 163 163 164 160 154 152 151 149 141 133 120 94 84 76 77 90 95 91 82 79 85 93 110 124 130 135 145 151 134 97 88 84 80 87 93 82 85 91 92 93 95 96 98 101 101 97 93 94 97 101 104 103 103 104 104 104 104 103 101 99 99 100 100 100 101 100 97 96 95 93 96 95 96 96 93 95 95 95 95
172 171 171 172 171 171 169 169 169 165 160 156 156 154 148 146 139 113 95 82 74 87 99 98 89 82 83 89 98 107 120 131 144 160 160 122 107 95 87 95 98 84 88 94 93 92 91 90 91 93 95 101 102 102 103 105 105 106 106 106 106 106 108 105 102 102 102 102 101 100 99 96 93 93 94 96 97 95 99 101 97 99 100 101 98
176 175 175 177 175 178 176 174 175 172 167 161 159 154 150 157 153 137 116 97 77 84 97 101 99 87 83 86 91 95 97 106 122 149 175 178 158 135 121 128 111 94 99 100 97 93 90 88 87 89 91 98 103 104 105 106 106 108 109 109 109 110 111 108 105 106 106 106 103 101 98 94 94 94 96 100 100 99 103 103 100 102 102 105 104
183 181 180 180 180 183 182 178 181 181 178 172 165 158 153 160 162 155 137 115 84 83 93 101 104 93 85 82 85 90 90 98 108 115 122 145 157 156 161 149 116 105 105 101 99 95 88 84 82 84 88 94 99 102 105 106 108 110 112 112 112 113 114 112 111 110 110 109 106 103 100 97 96 96 102 106 103 101 102 102 103 106 107 108 107
188 190 187 184 185 186 187 184 185 188 189 184 178 171 161 155 157 163 156 141 108 91 92 102 112 104 89 80 80 84 87 95 102 105 102 108 131 151 167 147 119 114 109 101 98 92 84 80 78 80 84 90 95 101 107 109 112 114 116 116 115 117 117 115 114 114 113 110 106 101 98 96 90 88 97 106 103 104 105 105 107 111 114 109 102
190 196 195 191 189 189 192 190 191 194 197 196 194 192 180 163 159 169 172 170 142 107 96 105 115 113 98 79 72 75 86 89 94 102 104 113 127 144 159 139 121 119 112 104 97 89 81 77 75 76 79 87 95 102 110 115 119 120 121 121 121 121 119 119 117 115 113 107 100 94 89 85 78 78 85 92 95 101 102 100 98 101 108 105 100
192 199 201 200 195 193 196 196 197 199 202 204 205 207 201 194 185 186 188 193 174 141 121 118 117 122 116 90 79 74 83 87 91 98 105 114 127 144 154 135 126 123 115 106 96 86 78 74 74 75 77 83 93 103 113 121 127 129 129 129 127 128 126 124 120 117 114 104 95 88 78 66 64 75 80 79 77 79 83 80 81 87 96 100 100
195 200 203 206 203 200 200 201 204 204 207 207 210 213 212 211 205 206 202 202 197 183 173 160 152 149 150 136 117 98 94 96 98 99 105 110 124 144 149 134 132 129 119 111 99 87 77 70 71 75 80 84 90 102 115 127 137 140 140 139 136 136 134 130 125 120 116 107 98 86 76 70 67 72 74 72 65 58 59 64 82 90 92 99 104
198 201 203 206 206 206 205 207 210 209 212 210 214 216 216 217 213 216 210 207 207 202 199 192 192 174 171 166 148 135 122 111 115 113 111 113 123 142 152 138 138 137 127 121 106 93 81 69 66 70 80 87 92 102 116 131 144 151 151 150 148 145 142 136 129 125 119 111 101 91 90 88 73 67 66 63 53 40 40 65 97 106 105 105 106
201 202 203 205 206 208 209 211 214 214 216 214 217 218 220 220 217 219 216 215 212 212 216 211 212 190 184 183 173 174 168 156 153 147 134 131 133 148 161 145 142 143 137 135 120 103 89 73 63 62 75 85 93 104 116 132 147 158 161 161 158 155 149 142 136 133 124 113 106 103 104 92 74 64 50 41 32 25 50 92 101 108 109 100 100
203 203 203 205 206 208 210 213 217 219 220 219 220 220 223 223 223 222 219 221 218 221 224 224 229 215 208 204 199 203 202 196 183 184 169 157 157 167 173 159 156 155 149 151 138 117 100 82 68 56 68 80 87 100 114 132 148 160 166 168 169 166 156 150 145 138 130 123 118 118 117 98 84 57 23 20 20 25 62 93 103 105 99 90 92
205 205 205 206 207 208 210 213 217 220 223 223 223 223 225 226 227 225 223 223 221 225 227 228 232 230 228 218 214 213 212 208 198 197 191 184 179 181 185 178 175 173 165 166 162 147 120 95 77 56 60 76 83 95 113 135 149 162 169 172 176 174 165 159 153 144 136 132 129 133 137 119 105 27 9 16 21 33 71 87 94 94 90 88 86
207 208 207 208 210 209 210 213 216 219 222 224 225 225 226 228 229 228 227 224 223 225 228 229 229 231 232 229 224 219 218 216 209 207 205 203 197 195 196 191 192 194 186 182 183 179 163 130 82 49 46 71 87 95 115 144 156 163 171 177 182 181 174 168 161 151 143 140 138 144 157 151 147 353 5 17 29 49 85 92 94 95 92 91 90
209 211 212 212 213 212 211 214 217 218 221 223 225 226 227 229 230 229 228 227 225 226 229 230 230 231 233 233 231 226 224 221 217 215 213 212 209 209 208 200 201 207 204 200 203 206 203 201 223 1 336 79 105 116 126 152 164 168 174 181 188 187 180 174 168 161 153 148 150 160 181 192 227 340 9 33 58 78 93 95 94 95 96 98 98
213 215 216 217 218 216 214 214 217 219 220 223 225 228 228 230 233 231 229 228 227 227 230 231 231 231 232 236 237 234 232 227 224 218 216 218 216 215 214 208 207 213 216 215 218 222 226 235 253 277 260 233 182 163 153 159 168 172 176 184 193 194 187 182 177 172 164 158 162 175 192 206 239 353 17 46 75 89 97 99 97 96 95 97 98
217 221 222 224 223 219 217 217 218 220 222 224 225 228 230 232 235 236 234 231 230 229 231 232 234 234 233 237 240 242 240 236 232 225 221 220 221 219 216 214 213 216 220 223 228 231 237 244 255 262 253 244 224 192 175 174 175 178 182 187 195 198 195 190 185 179 172 170 173 181 196 212 235 19 37 67 86 93 99 103 103 99 96 95 95
222 226 227 228 228 223 220 219 220 221 223 225 226 228 231 234 236 239 238 235 233 232 234 234 234 236 236 237 238 241 242 242 240 233 228 224 223 222 220 219 219 221 223 226 231 236 242 246 255 258 254 249 238 219 195 185 182 184 188 192 196 199 198 194 190 185 183 184 184 188 201 213 207 52 63 85 95 96 100 107 107 103 102 99 98
225 228 229 230 230 227 224 223 223 223 225 227 228 229 231 234 236 239 240 238 235 234 236 237 236 237 238 238 239 240 242 244 245 240 234 229 226 225 225 225 225 226 226 229 233 237 242 246 252 254 253 250 243 235 214 197 189 190 194 196 197 199 198 194 191 191 193 196 196 198 205 211 198 80 86 99 101 101 104 109 108 107 108 104 103
229 231 233 233 232 231 229 227 227 227 227 228 230 231 232 235 237 239 241 241 238 236 235 236 237 238 239 240 240 241 242 242 245 245 239 234 231 228 228 229 229 230 229 231 234 238 241 243 248 251 251 248 242 236 224 209 197 195 198 198 199 198 197 195 195 196 199 203 206 207 209 214 219 138 100 112 112 114 115 114 114 114 114 110 108
232 233 234 235 236 235 234 232 232 231 230 231 232 233 233 236 238 239 241 243 241 238 236 236 237 238 240 241 241 241 241 241 242 243 241 236 235 232 231 232 234 234 233 234 235 239 241 240 241 245 248 248 244 235 224 214 203 201 202 201 201 200 200 201 201 202 204 209 214 217 220 221 222 229 150 139 140 130 125 121 124 121 112 114 113
235 236 236 237 238 239 239 238 236 235 234 234 235 235 235 237 239 240 241 243 244 242 238 236 237 237 238 239 241 243 243 243 242 242 241 238 237 236 235 235 238 239 238 237 237 238 240 240 238 237 240 243 243 237 227 216 208 205 204 204 204 204 205 207 208 209 210 214 217 221 226 227 226 236 243 249 221 140 131 127 131 131 118 119 121
242 243 241 240 241 241 243 243 242 240 238 236 237 238 238 238 241 242 242 243 244 245 243 239 238 237 238 240 241 243 244 244 244 242 240 238 238 238 239 239 239 241 240 239 239 239 240 240 239 237 237 239 240 236 229 219 212 209 208 208 208 210 211 212 213 214 215 216 219 222 224 227 231 245 259 268 258 147 142 139 140 143 139 133 128
248 247 246 246 245 245 245 245 245 245 244 241 239 240 241 240 242 244 245 245 245 246 246 244 241 239 238 239 241 243 244 244 245 245 241 239 238 237 239 240 241 241 241 241 240 241 242 242 241 239 237 238 238 236 232 224 218 214 213 213 214 216 217 218 218 218 220 220 220 222 223 228 234 247 262 264 246 192 161 148 146 148 145 141 137
247 248 251 252 251 250 249 248 247 247 248 246 244 243 244 243 244 246 247 246 246 247 249 248 246 244 242 240 241 243 244 244 245 246 245 242 240 239 238 239 241 242 242 243 242 242 243 243 243 241 239 239 238 236 232 228 224 220 218 219 220 222 222 222 223 221 223 223 222 223 225 231 236 244 257 257 244 227 200 172 162 159 150 147 147
248 250 252 253 254 254 253 253 251 250 249 249 248 246 245 245 246 249 251 251 249 246 247 249 251 250 247 244 242 242 244 245 244 246 247 246 245 243 240 239 239 240 242 243 243 244 244 244 243 242 241 240 240 238 233 229 228 225 223 223 223 225 227 227 227 224 225 225 224 226 230 234 239 247 254 253 246 235 225 210 198 184 164 155 155
251 252 253 254 254 255 256 256 255 254 254 253 252 249 247 247 246 247 250 253 253 250 248 248 251 253 253 251 249 245 245 246 246 246 246 248 251 251 247 243 241 239 241 244 246 245 244 243 243 243 241 240 240 239 236 232 230 227 226 226 226 227 230 231 231 228 227 227 227 229 234 237 242 250 253 250 247 239 233 229 223 210 188 173 163
252 253 253 253 254 255 255 256 257 256 256 256 256 254 252 250 249 248 248 251 252 252 253 252 250 250 252 254 255 253 251 248 247 248 247 247 251 255 255 251 249 246 243 243 245 247 245 244 243 243 241 240 240 239 238 237 235 232 228 228 228 229 231 233 232 229 228 229 229 231 235 239 246 252 252 247 244 240 235 232 228 223 216 203 185
252 252 253 253 252 252 252 253 254 253 253 254 255 255 254 252 251 252 253 254 254 251 251 253 252 251 253 253 252 255 259 252 246 249 252 251 251 253 253 252 252 253 252 247 243 244 246 246 242 240 240 238 238 238 238 239 238 237 233 230 229 230 231 231 229 227 228 230 231 233 235 241 249 251 249 245 242 240 236 233 230 227 226 223 214
251 252 253 253 252 250 249 249 248 249 249 248 248 249 249 248 246 247 248 249 251 253 255 253 249 250 253 251 249 253 260 258 255 256 253 252 257 258 253 251 250 248 250 251 247 247 248 248 245 240 238 236 234 233 235 237 236 235 233 230 229 229 229 229 228 227 228 231 232 234 238 243 250 249 245 242 239 238 236 234 232 230 228 226 226
249 251 253 254 254 251 250 248 246 246 245 243 243 243 243 244 242 242 243 242 241 246 254 256 250 246 247 248 252 257 260 256 255 258 255 252 258 259 253 251 252 249 249 250 254 256 252 248 246 243 241 237 235 233 231 231 232 231 229 229 230 231 230 229 229 228 229 231 233 237 241 245 248 245 241 240 238 237 235 234 232 231 229 225 225
247 250 253 255 255 252 250 249 246 244 244 244 243 243 244 245 245 245 245 246 243 242 247 254 258 257 253 254 257 259 264 259 250 249 253 257 262 259 255 254 252 250 248 247 254 260 256 249 246 246 245 239 237 235 232 229 230 233 232 230 228 229 232 233 231 231 230 231 235 238 240 243 244 241 239 238 237 236 234 233 231 231 229 225 224
246 248 250 251 250 248 247 247 246 245 245 246 247 248 249 249 250 251 250 251 251 249 247 249 255 259 260 258 253 251 260 263 253 247 248 259 268 262 258 258 253 247 242 243 253 257 253 251 248 248 249 243 237 235 235 233 233 233 230 227 227 228 231 234 233 232 233 233 235 237 239 241 241 237 236 236 235 235 233 232 231 230 228 225 225
242 244 244 245 245 244 245 246 247 249 248 249 251 252 251 249 249 251 253 253 254 254 252 250 250 251 251 249 245 245 253 258 255 254 253 257 266 265 261 260 255 250 243 244 254 255 249 250 252 252 252 247 239 234 233 232 234 234 227 222 224 225 230 236 236 234 234 234 235 237 238 239 238 236 235 234 233 233 232 231 231 230 228 226 225
237 238 239 240 242 243 244 245 246 249 250 251 252 252 250 248 247 246 247 248 249 250 250 250 249 247 247 245 243 241 245 248 250 256 256 254 261 264 261 261 256 251 247 247 252 253 248 247 254 261 258 252 245 239 234 230 232 237 236 230 226 226 235 240 239 237 237 237 237 238 238 238 237 235 234 233 232 231 230 230 230 229 229 228 226
231 231 232 234 237 238 240 242 244 246 249 251 251 252 251 250 249 246 245 246 248 249 251 254 254 254 255 255 252 246 243 245 248 253 253 254 261 260 259 264 261 254 251 250 249 250 247 245 255 270 268 259 249 242 238 235 232 232 236 241 241 241 247 246 240 239 240 239 240 240 239 238 237 236 235 232 231 230 230 229 229 229 229 229 227
225 224 224 226 229 232 234 236 240 242 245 248 248 250 252 252 252 251 252 252 253 257 260 263 264 265 265 263 262 257 249 247 249 254 256 258 262 257 255 264 264 258 256 254 253 254 253 254 262 272 273 263 251 243 244 241 235 233 236 243 246 247 251 251 245 243 242 241 242 241 241 240 238 238 236 234 231 230 229 229 228 228 229 229 228
215 215 216 218 221 223 226 227 232 236 239 242 245 248 250 253 255 255 256 256 258 263 266 268 268 269 268 266 265 263 255 248 248 253 257 259 263 262 260 264 263 260 259 260 259 258 259 264 267 268 269 261 251 247 248 243 239 241 242 243 245 246 249 252 251 247 246 248 247 243 242 242 241 241 239 237 235 232 230 229 229 229 229 229 228
207 208 207 209 212 213 216 220 225 231 235 239 242 245 248 251 252 253 255 257 260 264 265 267 267 267 267 266 265 264 261 257 253 252 252 254 258 260 259 260 259 256 256 257 256 255 259 266 266 264 266 261 253 251 251 247 245 246 248 247 244 243 246 249 249 247 245 248 251 248 244 242 244 247 243 240 237 235 233 230 229 230 230 230 229
200 201 200 202 206 209 213 218 223 228 233 237 240 242 245 247 248 250 253 256 259 262 263 265 265 266 267 266 266 265 263 262 261 259 255 252 254 255 256 259 260 259 259 258 257 257 263 267 263 261 264 261 255 255 255 251 248 247 250 251 245 241 243 244 247 250 247 246 248 249 248 244 246 251 248 244 242 238 236 233 230 230 229 229 229
195 196 196 200 205 211 215 219 224 228 232 235 238 240 242 244 247 249 253 256 259 261 262 264 265 266 267 269 269 269 267 265 263 262 259 256 255 254 256 258 259 261 263 262 261 263 266 268 265 263 263 261 257 259 259 252 248 247 246 246 244 243 248 253 262 263 253 249 251 251 250 247 247 250 250 249 247 242 239 237 234 232 230 229 229